[[{"header":{"parameterUnit":"m.s-1","parameterCategory":2,"la1":30.2992,"la2":30.254,"lo1":-89.0895,"lo2":-89.0443,"dy":0.0025,"dx":0.0025,"nx":19,"ny":19,"refTime":"2026-04-08T21:00:00:Z","depth":"0","parameterNumber":2,"parameterNumberName":"U-component_of_CURRENTS"},"data":[0,0,0,0.0269,0.027,0.0296,0.0296,0.0323,0.0323,0,0,0,0,0,0,0,0,0,0,0,0.026,0.026,0.0269,0.027,0.0296,0.0296,0.0323,0.0323,0,0,0,0,0,0,0,0,0,0,0,0.026,0.026,0.0261,0.027,0.0296,0.0296,0.0323,0.0305,0,0,0,0,0,0,0,0,0,0,0.028,0.0272,0.026,0.0261,0.027,0.0296,0.0296,0.0304,0.0306,0.0309,0,0.0314,0,0.0319,0.0325,0.0325,0,0,0,0.027,0.027,0.0278,0.0261,0.027,0.0296,0.0284,0.0305,0.0307,0.0312,0.0315,0.0316,0.032,0.0325,0.0325,0.0342,0.0342,0,0,0.0268,0.0264,0.0277,0.028,0.0278,0.0283,0.0285,0.0306,0.0308,0.0315,0.0316,0.032,0.0325,0.0325,0.0342,0.0342,0,0,0,0.0264,0.0263,0.0271,0.0278,0.0284,0.0284,0.0286,0.0307,0.031,0.0317,0.0321,0.0325,0.0325,0.0342,0.0342,0.0353,0,0,0,0.0263,0.026,0.027,0.0267,0.0284,0.0297,0.0286,0.0309,0.0312,0.032,0.0325,0.0326,0.0342,0.0342,0.0353,0.0368,0,0,0,0.0259,0.026,0.0263,0.0267,0.0278,0.0296,0.0301,0.031,0.0314,0.0325,0.0326,0.0342,0.0342,0.0353,0.0367,0.0422,0,0,0,0.0252,0.0258,0.0263,0.0271,0.0278,0.0292,0.0301,0.0312,0.0321,0.0325,0.0342,0.0342,0.0353,0.0366,0.0421,0.0527,0.0542,0,0,0.0255,0.0258,0.0262,0.0268,0.0281,0.0288,0.0303,0.0319,0.0322,0.0335,0.0335,0.0353,0.0367,0.0422,0.0527,0.0542,0,0,0,0.026,0.0265,0.0269,0.0279,0.0288,0.0305,0.0315,0.0322,0.0338,0.0327,0.035,0.0359,0.0393,0.0454,0.0465,0.0549,0.0342,0.0342,0.0342,0.0261,0.0267,0.0277,0.0288,0.0298,0.0316,0.0331,0.0343,0.0341,0.0348,0.0365,0.0411,0.0473,0.0484,0.0567,0.0357,0.0357,0.0357,0.0357,0.027,0.0279,0.0288,0.03,0.0315,0.0328,0.0352,0.0359,0.0398,0.0373,0.0407,0.0458,0.0498,0.0582,0.0357,0.0357,0.0357,0.0357,0.0357,0.0276,0.0281,0.0288,0.0307,0.0328,0.0345,0.0393,0.0401,0.0419,0.0443,0.0542,0.0543,0.0624,0.0472,0.0473,0.0473,0.0473,0.0473,0.0474,0.028,0.0287,0.0301,0.0318,0.0335,0.0369,0.0422,0.0469,0.0553,0.0576,0.0578,0.0659,0.0447,0.045,0.0478,0.0477,0.0477,0.0476,0.0476,0.0292,0.0293,0.0317,0.0333,0.0372,0.0427,0.0478,0.0631,0.0689,0.0759,0.0846,0.066,0.0678,0.0669,0.0677,0.0763,0.0763,0.0763,0.0764,0.0299,0.0301,0.0338,0.0366,0.0406,0.0456,0.0613,0.0759,0.0932,0.1025,0.1009,0.1005,0.099,0.1024,0.1008,0.1022,0.1193,0.1194,0.1194,0.031,0.0322,0.0351,0.0378,0.042,0.0501,0.066,0.0865,0.1127,0.1215,0.1106,0.1088,0.1079,0.1048,0.1094,0.1064,0.1083,0,0]},{"header":{"parameterUnit":"m.s-1","parameterCategory":2,"la1":30.2992,"la2":30.254,"lo1":-89.0895,"lo2":-89.0443,"dy":0.0025,"dx":0.0025,"nx":19,"ny":19,"refTime":"2026-04-08T21:00:00:Z","depth":"0","parameterNumber":3,"parameterNumberName":"V-component_of_CURRENTS"},"data":[0,0,0,-0.0134,-0.0134,-0.014,-0.014,-0.015,-0.015,0,0,0,0,0,0,0,0,0,0,0,-0.0131,-0.0131,-0.0134,-0.0134,-0.014,-0.014,-0.015,-0.015,0,0,0,0,0,0,0,0,0,0,0,-0.0131,-0.0131,-0.0131,-0.0134,-0.014,-0.014,-0.015,-0.0145,0,0,0,0,0,0,0,0,0,0,-0.0139,-0.0137,-0.0131,-0.0131,-0.0135,-0.014,-0.014,-0.0145,-0.0145,-0.0148,0,-0.0149,0,-0.015,-0.0151,-0.0151,0,0,0,-0.0134,-0.0136,-0.0137,-0.0131,-0.0135,-0.014,-0.0138,-0.0145,-0.0146,-0.0149,-0.0149,-0.0149,-0.0151,-0.0151,-0.0151,-0.015,-0.0149,0,0,-0.0134,-0.0133,-0.0137,-0.0138,-0.0136,-0.0137,-0.0138,-0.0145,-0.0146,-0.0149,-0.0149,-0.0151,-0.0151,-0.0151,-0.015,-0.0149,0,0,0,-0.0133,-0.0133,-0.0134,-0.0137,-0.0139,-0.0138,-0.0138,-0.0146,-0.0146,-0.0149,-0.0151,-0.0151,-0.0151,-0.015,-0.015,-0.0136,0,0,0,-0.0133,-0.0133,-0.0133,-0.0133,-0.0138,-0.0142,-0.0138,-0.0145,-0.0146,-0.0151,-0.0151,-0.0151,-0.015,-0.015,-0.0136,-0.0123,0,0,0,-0.0131,-0.0133,-0.0133,-0.0133,-0.0136,-0.0142,-0.0143,-0.0146,-0.0147,-0.0151,-0.0151,-0.015,-0.015,-0.0137,-0.0124,-0.01,0,0,0,-0.0131,-0.0128,-0.0133,-0.013,-0.0136,-0.0132,-0.0143,-0.0142,-0.0144,-0.0151,-0.015,-0.015,-0.0137,-0.0125,-0.0101,-0.0029,-0.0019,0,0,-0.0126,-0.0128,-0.0125,-0.0129,-0.0122,-0.0131,-0.0125,-0.0133,-0.0142,-0.0148,-0.0148,-0.0136,-0.0124,-0.01,-0.0015,-0.0005,0,0,0,-0.0123,-0.0121,-0.0119,-0.0117,-0.0116,-0.0112,-0.0122,-0.0126,-0.0131,-0.0142,-0.0135,-0.0128,-0.0113,-0.0072,-0.0064,-0.009,-0.0148,-0.0149,-0.0149,-0.0114,-0.0113,-0.0106,-0.0103,-0.01,-0.0101,-0.0099,-0.0106,-0.012,-0.012,-0.0116,-0.0088,-0.0044,-0.0037,-0.0065,-0.012,-0.012,-0.012,-0.012,-0.0104,-0.0099,-0.0095,-0.0089,-0.0083,-0.0079,-0.0078,-0.0086,-0.0081,-0.0101,-0.0088,-0.0059,-0.0027,-0.006,-0.0119,-0.0119,-0.0119,-0.0119,-0.0119,-0.01,-0.0096,-0.0095,-0.0082,-0.0068,-0.0064,-0.0033,-0.0049,-0.0061,-0.0052,-0.0001,-0.0,-0.0028,-0.0045,-0.0044,-0.0044,-0.0044,-0.0044,-0.0044,-0.0095,-0.0091,-0.0081,-0.0071,-0.0055,-0.0031,-0.0008,0.0013,0.0035,0.003,0.003,-0.0015,-0.0064,-0.0066,-0.0041,-0.0042,-0.0042,-0.0042,-0.0043,-0.0083,-0.0085,-0.0066,-0.0052,-0.0009,0.0063,0.0074,0.0153,0.0156,0.0185,0.01,0.0077,0.0083,0.0077,0.0079,0.014,0.014,0.014,0.014,-0.0073,-0.0074,-0.0041,-0.0008,0.0045,0.0108,0.026,0.0328,0.0279,0.0236,0.0158,0.0146,0.014,0.0148,0.014,0.0142,0.0217,0.0217,0.0217,-0.0058,-0.0052,-0.002,0.0009,0.0073,0.0186,0.037,0.0515,0.0385,0.0213,0.0105,0.0102,0.0074,0.0066,0.0067,0.0059,0.0058,0,0]}],[{"header":{"parameterUnit":"m.s-1","parameterCategory":2,"la1":30.2992,"la2":30.254,"lo1":-89.0895,"lo2":-89.0443,"dy":0.0025,"dx":0.0025,"nx":19,"ny":19,"refTime":"2026-04-08T21:00:00:Z","depth":"2","parameterNumber":2,"parameterNumberName":"U-component_of_CURRENTS"},"data":[0,0,0,0.0464,0.0465,0.0481,0.0481,0.0502,0.0502,0,0,0,0,0,0,0,0,0,0,0,0.0459,0.0459,0.0464,0.0465,0.0481,0.0481,0.0502,0.0502,0,0,0,0,0,0,0,0,0,0,0,0.0459,0.0459,0.0459,0.0465,0.0481,0.0481,0.0502,0.049,0,0,0,0,0,0,0,0,0,0,0.0474,0.0468,0.0459,0.0459,0.0465,0.0481,0.0481,0.0489,0.049,0.0495,0,0.0498,0,0.05,0.0504,0.0504,0,0,0,0.0465,0.0467,0.0472,0.0459,0.0465,0.0481,0.0474,0.049,0.0491,0.0496,0.0498,0.0499,0.0501,0.0504,0.0504,0.0521,0.0521,0,0,0.0464,0.0461,0.0471,0.0473,0.047,0.0473,0.0474,0.0491,0.0492,0.0498,0.0499,0.0501,0.0504,0.0504,0.0521,0.0521,0,0,0,0.0461,0.046,0.0465,0.0472,0.0475,0.0474,0.0475,0.0491,0.0493,0.0499,0.0501,0.0504,0.0504,0.0521,0.0521,0.0532,0,0,0,0.0461,0.0459,0.0465,0.0463,0.0475,0.0483,0.0475,0.0492,0.0494,0.0501,0.0504,0.0504,0.0521,0.0521,0.0532,0.0544,0,0,0,0.0458,0.0458,0.0461,0.0463,0.047,0.0483,0.0486,0.0493,0.0495,0.0504,0.0504,0.0521,0.0521,0.0531,0.0543,0.0595,0,0,0,0.0454,0.0457,0.0461,0.0465,0.047,0.048,0.0486,0.0494,0.0501,0.0504,0.0521,0.0521,0.0531,0.0542,0.0594,0.0693,0.0707,0,0,0.0455,0.0457,0.0459,0.0463,0.0472,0.0478,0.0491,0.0501,0.0503,0.0515,0.0516,0.0532,0.0543,0.0595,0.0697,0.0711,0,0,0,0.0458,0.046,0.0464,0.047,0.0478,0.0492,0.0499,0.0507,0.052,0.0508,0.053,0.0537,0.057,0.0626,0.0637,0.0521,0.0521,0.0521,0.0521,0.0456,0.0461,0.0468,0.0477,0.0484,0.0501,0.0516,0.0528,0.0525,0.0532,0.0544,0.0589,0.0648,0.0658,0.0539,0.0539,0.0539,0.0539,0.0539,0.0461,0.0466,0.0474,0.0481,0.0496,0.0508,0.0534,0.0541,0.0579,0.0555,0.0587,0.0633,0.0671,0.054,0.054,0.054,0.0539,0.0539,0.0539,0.0462,0.0466,0.047,0.0483,0.05,0.0517,0.0565,0.0576,0.0596,0.062,0.0712,0.0713,0.0617,0.0647,0.0647,0.0647,0.0648,0.0648,0.0648,0.0463,0.0467,0.0476,0.0488,0.0501,0.0532,0.0586,0.0634,0.0718,0.0743,0.0744,0.0626,0.0623,0.0624,0.0652,0.0651,0.0651,0.065,0.065,0.0469,0.0469,0.0486,0.0497,0.0529,0.0581,0.0633,0.0783,0.0842,0.091,0.0827,0.0822,0.0838,0.083,0.0837,0.0918,0.0918,0.0918,0.0918,0.0472,0.0473,0.0501,0.0522,0.0557,0.0605,0.0753,0.088,0.0966,0.0991,0.0987,0.0967,0.0956,0.0976,0.0965,0.0973,0.109,0.109,0.109,0.048,0.049,0.0512,0.0532,0.0568,0.0646,0.0791,0.093,0.104,0.1089,0.0944,0.0944,0.0904,0.089,0.091,0.0896,0.0904,0,0]},{"header":{"parameterUnit":"m.s-1","parameterCategory":2,"la1":30.2992,"la2":30.254,"lo1":-89.0895,"lo2":-89.0443,"dy":0.0025,"dx":0.0025,"nx":19,"ny":19,"refTime":"2026-04-08T21:00:00:Z","depth":"2","parameterNumber":3,"parameterNumberName":"V-component_of_CURRENTS"},"data":[0,0,0,-0.0166,-0.0166,-0.0168,-0.0168,-0.0174,-0.0174,0,0,0,0,0,0,0,0,0,0,0,-0.0164,-0.0164,-0.0166,-0.0166,-0.0168,-0.0168,-0.0174,-0.0174,0,0,0,0,0,0,0,0,0,0,0,-0.0164,-0.0164,-0.0164,-0.0166,-0.0168,-0.0168,-0.0174,-0.0172,0,0,0,0,0,0,0,0,0,0,-0.0169,-0.0168,-0.0164,-0.0164,-0.0166,-0.0168,-0.0168,-0.0172,-0.0172,-0.0174,0,-0.0174,0,-0.0175,-0.0175,-0.0175,0,0,0,-0.0166,-0.0168,-0.0168,-0.0164,-0.0166,-0.0168,-0.0167,-0.0172,-0.0172,-0.0175,-0.0174,-0.0174,-0.0175,-0.0175,-0.0175,-0.0169,-0.0169,0,0,-0.0166,-0.0166,-0.0167,-0.0168,-0.0166,-0.0167,-0.0167,-0.0172,-0.0173,-0.0174,-0.0174,-0.0175,-0.0175,-0.0175,-0.0169,-0.0169,0,0,0,-0.0165,-0.0166,-0.0165,-0.0168,-0.0168,-0.0167,-0.0167,-0.0172,-0.0172,-0.0175,-0.0175,-0.0175,-0.0175,-0.0169,-0.0169,-0.0153,0,0,0,-0.0165,-0.0166,-0.0165,-0.0165,-0.0168,-0.017,-0.0168,-0.0172,-0.0172,-0.0175,-0.0175,-0.0175,-0.0169,-0.0169,-0.0154,-0.0139,0,0,0,-0.0164,-0.0166,-0.0165,-0.0165,-0.0166,-0.017,-0.017,-0.0172,-0.0173,-0.0175,-0.0175,-0.0169,-0.0169,-0.0154,-0.014,-0.0118,0,0,0,-0.0165,-0.0161,-0.0165,-0.016,-0.0166,-0.0159,-0.017,-0.0168,-0.0168,-0.0175,-0.0169,-0.0169,-0.0155,-0.0141,-0.0119,-0.0059,-0.0049,0,0,-0.016,-0.0161,-0.0157,-0.016,-0.0149,-0.0158,-0.0148,-0.0155,-0.0165,-0.0168,-0.0168,-0.0153,-0.0141,-0.0118,-0.0042,-0.0032,0,0,0,-0.0155,-0.0152,-0.0149,-0.0145,-0.0141,-0.0134,-0.0143,-0.0146,-0.015,-0.0164,-0.0152,-0.0144,-0.0131,-0.0096,-0.0089,-0.0167,-0.0168,-0.0168,-0.0168,-0.0147,-0.0143,-0.0134,-0.0128,-0.0122,-0.0119,-0.0114,-0.012,-0.0136,-0.0135,-0.013,-0.0101,-0.0064,-0.0058,-0.0134,-0.0134,-0.0133,-0.0133,-0.0133,-0.0135,-0.0128,-0.0121,-0.0111,-0.0102,-0.0094,-0.0089,-0.0097,-0.0091,-0.0112,-0.01,-0.008,-0.0049,-0.0132,-0.0132,-0.0132,-0.0133,-0.0133,-0.0133,-0.0131,-0.0125,-0.0122,-0.0104,-0.0086,-0.0078,-0.0045,-0.0057,-0.007,-0.006,-0.002,-0.002,-0.0084,-0.0055,-0.0055,-0.0055,-0.0055,-0.0055,-0.0055,-0.0127,-0.0121,-0.011,-0.0094,-0.0077,-0.0048,-0.0021,-0.0001,0.0017,0.0011,0.0011,-0.0074,-0.0076,-0.0079,-0.0052,-0.0053,-0.0053,-0.0053,-0.0053,-0.0115,-0.0117,-0.0097,-0.0081,-0.0035,0.0034,0.005,0.0122,0.0125,0.0149,0.0055,0.0052,0.0056,0.0051,0.0051,0.011,0.011,0.011,0.011,-0.0107,-0.0107,-0.0074,-0.004,0.0013,0.0075,0.0209,0.0262,0.0235,0.0197,0.0193,0.0185,0.0177,0.0187,0.0178,0.018,0.0273,0.0274,0.0274,-0.0094,-0.0087,-0.0056,-0.0026,0.0038,0.0142,0.0301,0.0397,0.0332,0.0278,0.0196,0.0126,0.0103,0.0095,0.0098,0.0089,0.0088,0,0]}],[{"header":{"parameterUnit":"m.s-1","parameterCategory":2,"la1":30.2992,"la2":30.254,"lo1":-89.0895,"lo2":-89.0443,"dy":0.0025,"dx":0.0025,"nx":19,"ny":19,"refTime":"2026-04-08T21:00:00:Z","depth":"4","parameterNumber":2,"parameterNumberName":"U-component_of_CURRENTS"},"data":[0,0,0,0.0498,0.0499,0.0521,0.0521,0.0541,0.0541,0,0,0,0,0,0,0,0,0,0,0,0.0493,0.0493,0.0498,0.0499,0.0521,0.0521,0.0541,0.0541,0,0,0,0,0,0,0,0,0,0,0,0.0493,0.0493,0.0493,0.0499,0.0521,0.0521,0.0541,0.0526,0,0,0,0,0,0,0,0,0,0,0.0506,0.0504,0.0493,0.0493,0.0499,0.0521,0.0521,0.0526,0.0527,0.0529,0,0.0536,0,0.0538,0.0543,0.0543,0,0,0,0.0498,0.0503,0.0507,0.0493,0.0499,0.0521,0.0511,0.0527,0.0528,0.0531,0.0536,0.0537,0.0539,0.0543,0.0543,0.0563,0.0563,0,0,0.0497,0.0498,0.0505,0.0508,0.0509,0.051,0.0512,0.0528,0.0532,0.0536,0.0537,0.0539,0.0543,0.0543,0.0563,0.0563,0,0,0,0.0494,0.0497,0.0501,0.0507,0.0512,0.0511,0.0513,0.0532,0.0533,0.0537,0.0539,0.0543,0.0543,0.0563,0.0563,0.0576,0,0,0,0.0493,0.0496,0.0501,0.0502,0.0511,0.0524,0.0516,0.0532,0.0533,0.0539,0.0543,0.0543,0.0563,0.0563,0.0575,0.0582,0,0,0,0.0491,0.0495,0.0499,0.0502,0.0511,0.0523,0.0525,0.0532,0.0535,0.0543,0.0543,0.0563,0.0563,0.0575,0.0581,0.0629,0,0,0,0.049,0.0493,0.0499,0.0504,0.0511,0.0521,0.0525,0.0535,0.0542,0.0543,0.0563,0.0563,0.0575,0.0581,0.0627,0.0586,0,0,0,0.0489,0.0493,0.0495,0.0501,0.0509,0.0518,0.0533,0.0544,0.0546,0.0556,0.0557,0.0576,0.0581,0.0628,0.0598,0,0,0,0,0.0492,0.0495,0.0499,0.0507,0.0516,0.0532,0.0542,0.0552,0.0567,0.0551,0.0576,0.0579,0.0609,0.0581,0.0564,0.0564,0.0564,0.0564,0.0564,0.0488,0.0494,0.05,0.051,0.0521,0.0542,0.0559,0.0574,0.0573,0.0583,0.059,0.0634,0.0603,0.059,0.059,0.059,0.059,0.059,0.059,0.0486,0.0489,0.0503,0.051,0.0529,0.0544,0.0576,0.0586,0.0626,0.0605,0.0634,0.0595,0.0591,0.0591,0.0591,0.0591,0.0591,0.0591,0.0591,0.0481,0.0483,0.0492,0.0508,0.0528,0.055,0.0594,0.0613,0.064,0.0663,0.0659,0.0657,0.0657,0.0688,0.0688,0.0689,0.0689,0.0689,0.0689,0.047,0.048,0.0491,0.0508,0.0521,0.0552,0.0609,0.0652,0.0685,0.0675,0.0678,0.0668,0.0665,0.0664,0.0693,0.0692,0.0692,0.0691,0.0691,0.0462,0.0471,0.0488,0.0502,0.0535,0.0553,0.0613,0.0681,0.0732,0.0752,0.0692,0.0691,0.0691,0.0688,0.0687,0.0725,0.0724,0.0724,0,0.0457,0.0461,0.0491,0.0513,0.0537,0.0558,0.0615,0.0672,0.0706,0.0674,0.0738,0.0667,0.0666,0.0662,0.0659,0.0656,0,0,0,0.0455,0.0467,0.0487,0.0511,0.0532,0.0576,0.0628,0.0643,0.0677,0.0734,0.0714,0.0717,0.0729,0.0704,0.0701,0.0698,0.0697,0,0]},{"header":{"parameterUnit":"m.s-1","parameterCategory":2,"la1":30.2992,"la2":30.254,"lo1":-89.0895,"lo2":-89.0443,"dy":0.0025,"dx":0.0025,"nx":19,"ny":19,"refTime":"2026-04-08T21:00:00:Z","depth":"4","parameterNumber":3,"parameterNumberName":"V-component_of_CURRENTS"},"data":[0,0,0,-0.0105,-0.0106,-0.0128,-0.0128,-0.0138,-0.0138,0,0,0,0,0,0,0,0,0,0,0,-0.0098,-0.0098,-0.0105,-0.0106,-0.0128,-0.0128,-0.0138,-0.0138,0,0,0,0,0,0,0,0,0,0,0,-0.0098,-0.0098,-0.0098,-0.0106,-0.0128,-0.0128,-0.0138,-0.0125,0,0,0,0,0,0,0,0,0,0,-0.0106,-0.0103,-0.0098,-0.0098,-0.0106,-0.0128,-0.0128,-0.0125,-0.0126,-0.0124,0,-0.013,0,-0.0135,-0.0139,-0.0139,0,0,0,-0.0103,-0.0102,-0.0108,-0.0098,-0.0106,-0.0128,-0.0117,-0.0126,-0.0127,-0.0125,-0.0131,-0.0131,-0.0135,-0.0139,-0.0139,-0.013,-0.013,0,0,-0.0102,-0.0101,-0.0107,-0.0109,-0.0116,-0.0117,-0.0118,-0.0127,-0.0129,-0.0131,-0.0131,-0.0136,-0.0139,-0.0139,-0.013,-0.013,0,0,0,-0.01,-0.01,-0.0106,-0.0108,-0.0114,-0.0117,-0.0119,-0.0129,-0.0131,-0.0132,-0.0136,-0.0139,-0.0139,-0.013,-0.013,-0.0113,0,0,0,-0.0099,-0.0099,-0.0106,-0.0105,-0.0115,-0.0125,-0.0121,-0.0131,-0.0132,-0.0136,-0.0139,-0.0139,-0.013,-0.013,-0.0114,-0.01,0,0,0,-0.0096,-0.0099,-0.0103,-0.0105,-0.0116,-0.0125,-0.0128,-0.0131,-0.0134,-0.0139,-0.0139,-0.013,-0.013,-0.0115,-0.0101,-0.0081,0,0,0,-0.0092,-0.0097,-0.0103,-0.0106,-0.0115,-0.0114,-0.0128,-0.013,-0.0133,-0.0139,-0.013,-0.013,-0.0115,-0.0102,-0.0082,-0.0052,0,0,0,-0.0095,-0.0098,-0.0098,-0.0103,-0.0098,-0.011,-0.0101,-0.0114,-0.0126,-0.0126,-0.0126,-0.0114,-0.0102,-0.0081,-0.0031,0,0,0,0,-0.0095,-0.0096,-0.0095,-0.0095,-0.0095,-0.0088,-0.0101,-0.0104,-0.011,-0.0127,-0.0111,-0.0104,-0.0092,-0.0077,-0.0128,-0.0128,-0.0128,-0.0128,-0.0128,-0.0098,-0.0093,-0.0087,-0.008,-0.0076,-0.0073,-0.0068,-0.0074,-0.0092,-0.0092,-0.0089,-0.0059,-0.0043,-0.0091,-0.009,-0.009,-0.009,-0.009,-0.009,-0.0093,-0.0086,-0.0076,-0.007,-0.0058,-0.0051,-0.0041,-0.005,-0.0044,-0.0066,-0.0056,-0.0059,-0.0089,-0.0089,-0.0089,-0.0089,-0.0089,-0.009,-0.009,-0.009,-0.0084,-0.0083,-0.0067,-0.0049,-0.0037,-0.0004,-0.0013,-0.0025,-0.0016,-0.0,-0.0041,-0.0044,-0.0014,-0.0014,-0.0014,-0.0014,-0.0014,-0.0014,-0.0087,-0.0083,-0.0075,-0.006,-0.0044,-0.0016,0.0014,0.0033,0.0023,0.0031,-0.001,-0.0033,-0.0035,-0.0039,-0.0011,-0.0012,-0.0012,-0.0012,-0.0012,-0.0077,-0.0081,-0.0065,-0.0053,-0.001,0.0021,0.0044,0.009,0.0111,0.0117,0.0059,0.0054,0.0054,0.005,0.0049,0.0104,0.0105,0.0105,0,-0.0071,-0.0072,-0.0047,-0.0017,0.003,0.0051,0.0112,0.0137,0.0125,0.0118,0.0096,0.0027,0.0024,0.0021,0.0018,0.0015,0,0,0,-0.006,-0.0055,-0.0031,-0.0005,0.0051,0.0106,0.0134,0.0151,0.0116,0.016,0.0118,0.0115,0.0054,-0.0004,-0.0014,-0.0017,-0.0024,0,0]}]]